If you wish to contribute or participate in the discussions about articles you are invited to join SKYbrary as a registered user

 Actions

Melun-Villaroche Air Base

From SKYbrary Wiki

LFPM
Airport
ICAO: LFPM
Summary
Name Melun-Villaroche Air Base
Region Europe
Territory France FR.gif
Location , Ile-de-France
Serving Melun
Elevation 92.05 m
302 ft
302 ft92.05 m
Type medium airport
Coordinates 48° 36' 17.01" N, 2° 40' 16.03" E
Runways
Designator Length Width Surface ROPS
1/19 1300 m4,265.092 ft
30 m98.425 ft
ASP yes/yes
10/28 1975 m6,479.659 ft
45 m147.638 ft
ASP yes/yes


METAR
Observation LFPM 220330Z AUTO 35005KT 4000 BR ////// M03/M03 Q1035
Station Melun
Date/Time 22 January 2020 03:30:00
Wind direction 350°
Wind speed 05 kts
Lowest cloud amount n/a
Temperature
Dew point
Humidity 100%
QNH 1035 hPa
Weather condition n/a